Location: Austin
(30.3000°N, 97.7500°W)
Time: 05:44:23
(UTC-05:00)

Cosmos 1782 - Pass Details

Date: 16 June 2025
Orbit: 478 x 488 km, 82.5° (Epoch: 07 July)

Event Time Altitude Azimuth Distance (km) Brightness Sun altitude
Rises 05:52:52 0° 337° (NNW) 2,539 6.3 -7.6°
Reaches altitude 10° 05:55:17 10° 321° (NW) 1,657 5.2 -7.1°
Maximum altitude 05:58:07 22° 270° (W) 1,101 3.9 -6.6°
Drops below altitude 10° 06:00:56 10° 218° (SW) 1,653 4.7 -6.1°
Enters shadow 06:02:34 - 206° (SSW) 2,229 5.4 -5.8°
